Weather in Posevnaya

Russia / Novosibirsk Oblast     54°17′59″N   83°19′48″E
temp.,
°C
wind,
m/s
gust,
m/s
humid.,
%
clouds,
%
prec.,
mm/h
press.,
hPa
HPBL,
m
1 march, mon
mon101:00−12sse61194100 1.1 1021353
04:00−10sse61194100 0.7 1017497
07:00−8sse61195100 1.8 1013510
10:00−6s71394100 1.6 1010821
13:00−2ssw101794100 2.6 1008865
16:000sw71399100 2.8 1008701
19:000sw61198100 4.5 1007608
22:00−1sw81395100 2.6 1007839
2 march, tue
tue201:00−2wsw71396100 3.3 1009691
04:00−7wnw3697100 0.6 1009201
07:00−11wnw349699 1.0 101296
10:00−11w359599 0.4 1014230
13:00−9w369396 0.5 1016414
16:00−8wsw3592100 0.1 1015525
19:00−10wsw2396100 0.2 101673
22:00−13nnw119795 0.1 101621
3 march, wed
wed301:00−15n019895 0.2 101620
04:00−15w119795 0.1 101620
07:00−14wnw119796 0.3 101721
10:00−13sw119599 0.2 101793
13:00−11sw349399 0.4 1019382
16:00−9sw4791100 0.3 1020630
19:00−11sw3795100 0.4 1021229
22:00−14ssw4109697 0.1 1023272
4 march, thu
thu401:00−17s5109796 0.1 1024194
04:00−15s6119799 0.0 1022268
07:00−12s7149399 0.1 1022460
10:00−9s81490100 0.3 1020628
13:00−7ssw81488100 0.3 1020627
16:00−5ssw81488100 0.0 1019722
19:00−5ssw81687100 0.1 1018675
22:00−7ssw81687100 0.0 1017546
5 march, fri
fri501:00−7s71689100 0.0 1016453
04:00−6s71685100 0.0 1014506
07:00−7s6168599 0.0 1012492
10:00−5s81395100 0.8 1010753
13:00−3sw71195100 2.4 1010879
16:00−2wsw81291100 0.6 10131011
19:00−5wsw7148598 1.1 1018611
22:00−8sw7159164 0.0 1022531